{"data":{"norad_id":58610,"epoch":"2026-09-20T23:23:42.655200Z","epoch_age_seconds":108780,"freshness":"FRESH","line1":"1 58610U 23200X   26263.97479925  .00000471  00000+0  26653-4 0  9995","line2":"2 58610  43.0017 146.2299 0001361 272.6317  87.4378 15.27579249153477","mean_motion":15.27579249,"eccentricity":0.0001361,"inclination_deg":43.0017,"raan_deg":146.2299,"arg_perigee_deg":272.6317,"mean_anomaly_deg":87.4378,"bstar":2.6653e-5,"rev_number":15347,"period_min":94.26679505778,"perigee_km":482.11753707102,"apogee_km":483.98515253847,"semimajor_km":6861.1883448047,"source":"CELESTRAK","updated_at":"2026-09-21T09:00:33.921185Z"}}